WMT3345 LROP-LOWW

Flight info

Callsign WMT3345
Flight time N/A
Altitude 34000
Route SOKRU DCT OXDOC DCT ULMIN DCT DEGET DCT ERGUZ DCT BALUX DCT TORNO DCT NATEX NATEX2W
Aircraft A321/M-SDE3FGHIRWY/LB1

Departure

Time 2026-04-30 17:41
Airport Bucharest Henri Coandă International Airport (LROP)

Arrival

Time N/A
Airport Vienna International Airport (LOWW)
Time Latitude Longitude Altitude Speed Heading
2026-04-30 17:39 44.56559 26.08920 322 ft 116 kts 84°
2026-04-30 17:41 44.58148 26.23109 3203 ft 244 kts 44°
2026-04-30 17:42 44.61333 26.23827 4881 ft 261 kts 336°
2026-04-30 17:42 44.64721 26.17631 7039 ft 269 kts 334°
2026-04-30 17:43 44.68333 26.16823 8427 ft 266 kts
2026-04-30 17:44 44.73967 26.16864 10507 ft 274 kts 356°
2026-04-30 17:44 44.78623 26.12478 12215 ft 293 kts 303°
2026-04-30 17:46 44.84654 25.98677 14096 ft 347 kts 302°
2026-04-30 17:47 44.88310 25.85929 16302 ft 358 kts 286°
2026-04-30 17:48 44.91166 25.72226 18474 ft 370 kts 285°
2026-04-30 17:48 44.93368 25.61682 20004 ft 376 kts 284°
2026-04-30 17:49 44.96325 25.47428 22004 ft 383 kts 284°
2026-04-30 17:50 44.99326 25.32860 23836 ft 390 kts 285°
2026-04-30 17:51 45.02069 25.21921 24793 ft 398 kts 291°
2026-04-30 17:52 45.06230 25.11686 25724 ft 404 kts 303°
2026-04-30 17:53 45.13822 24.94693 27283 ft 413 kts 303°
2026-04-30 17:54 45.20012 24.80878 28438 ft 420 kts 303°
2026-04-30 17:55 45.26303 24.66737 29519 ft 427 kts 303°
2026-04-30 17:56 45.32656 24.52368 30658 ft 431 kts 303°
2026-04-30 17:57 45.37425 24.41536 31539 ft 430 kts 302°
2026-04-30 17:58 45.42176 24.30727 32357 ft 429 kts 303°
2026-04-30 17:59 45.48495 24.16298 33393 ft 429 kts 302°
2026-04-30 18:00 45.54770 24.01850 34302 ft 429 kts 302°
2026-04-30 18:01 45.62544 23.83879 34342 ft 426 kts 302°
2026-04-30 18:02 45.71847 23.62207 34337 ft 426 kts 302°
2026-04-30 18:04 45.81092 23.40477 34330 ft 427 kts 301°
2026-04-30 18:06 45.91346 23.09685 34305 ft 428 kts 296°
2026-04-30 18:08 46.00196 22.82577 34323 ft 428 kts 296°
2026-04-30 18:10 46.10247 22.51478 34303 ft 430 kts 296°
2026-04-30 18:11 46.19010 22.24057 34302 ft 431 kts 296°
2026-04-30 18:13 46.25249 22.04362 34288 ft 432 kts 296°
2026-04-30 18:14 46.31460 21.84602 34319 ft 434 kts 296°
2026-04-30 18:15 46.38909 21.60692 34309 ft 435 kts 296°
2026-04-30 18:16 46.43856 21.44683 34317 ft 435 kts 296°
2026-04-30 18:17 46.46319 21.36660 34310 ft 435 kts 296°
2026-04-30 18:18 46.50124 21.24761 34318 ft 434 kts 301°
2026-04-30 18:18 46.53111 21.17146 34320 ft 434 kts 301°
2026-04-30 18:19 46.56101 21.09528 34324 ft 434 kts 301°
2026-04-30 18:19 46.59087 21.01888 34313 ft 434 kts 302°
2026-04-30 18:20 46.62057 20.94243 34320 ft 435 kts 301°
2026-04-30 18:20 46.65029 20.86570 34322 ft 436 kts 301°
2026-04-30 18:21 46.68004 20.78869 34334 ft 439 kts 301°